EW7554 Weather Reports


time (UTC)temp
C
wind
direction
speed
KPH
gust
KPH
rain 1hr
cm
rain 24hr
cm
rain mn
cm
humidity
%
barometer
mb
20260504000040 20 295 8.0 17.7 0.00 0.00 0.00 24 1004.7
20260503234529 21 251 3.2 14.5 0.00 0.00 0.00 25 1004.6
20260503233028 21 265 9.7 22.5 0.00 0.00 0.00 24 1004.7
20260503231526 22 255 6.4 16.1 0.00 0.00 0.00 23 1005.0
20260503230026 21 326 4.8 19.3 0.00 0.00 0.00 24 1005.1
20260503224531 21 248 9.7 29.0 0.00 0.00 0.00 23 1005.2
20260503223024 21 316 9.7 24.1 0.00 0.00 0.00 24 1005.3
20260503221523 21 342 8.0 29.0 0.00 0.00 0.00 24 1005.3
20260503220026 21 312 6.4 25.7 0.00 0.00 0.00 24 1005.4
20260503214530 21 323 14.5 24.1 0.00 0.00 0.00 24 1005.5
20260503213025 21 284 11.3 22.5 0.00 0.00 0.00 24 1005.6
20260503211522 21 299 17.7 32.2 0.00 0.00 0.00 25 1005.8
20260503210038 20 260 14.5 25.7 0.00 0.00 0.00 26 1005.8
20260503204519 21 203 9.7 22.5 0.00 0.00 0.00 26 1006.0
20260503203019 21 350 4.8 20.9 0.00 0.00 0.00 28 1006.0
20260503201521 21 297 16.1 24.1 0.00 0.00 0.00 28 1006.2
20260503200018 21 298 11.3 27.4 0.00 0.00 0.00 29 1006.3
20260503194515 21 250 9.7 27.4 0.00 0.00 0.00 27 1006.6
20260503193014 20 332 11.3 30.6 0.00 0.00 0.00 27 1006.6
20260503191513 20 313 16.1 29.0 0.00 0.00 0.00 27 1006.7
20260503190015 20 314 9.7 30.6 0.00 0.00 0.00 30 1006.6
20260503184513 20 313 12.9 22.5 0.00 0.00 0.00 29 1006.7
20260503183009 20 296 11.3 27.4 0.00 0.00 0.00 30 1006.9
20260503181507 20 271 8.0 32.2 0.00 0.00 0.00 35 1006.9
20260503180007 20 293 8.0 22.5 0.00 0.00 0.00 35 1007.1
20260503174504 19 314 14.5 27.4 0.00 0.00 0.00 35 1007.1
20260503173003 19 343 9.7 25.7 0.00 0.00 0.00 34 1007.2
20260503171600 19 282 12.9 33.8 0.00 0.00 0.00 39 1007.2
20260503081512 15 192 6.4 20.9 0.00 0.00 0.00 42 1006.1
20260503071505 15 225 17.7 30.6 0.00 0.00 0.00 45 1006.7
20260503054551 14 205 9.7 16.1 0.00 0.00 0.00 46 1008.5
20260503053050 14 174 9.7 19.3 0.00 0.00 0.00 46 1008.6
20260503051547 14 188 9.7 16.1 0.00 0.00 0.00 45 1008.9
20260503050044 14 176 6.4 17.7 0.00 0.00 0.00 44 1008.7
20260503044544 15 176 8.0 14.5 0.00 0.00 0.00 43 1008.8
20260503043042 15 165 8.0 16.1 0.00 0.00 0.00 42 1009.0
20260503041543 15 175 9.7 20.9 0.00 0.00 0.00 42 1009.2
20260503040038 15 171 8.0 14.5 0.00 0.00 0.00 41 1009.5
20260503034537 16 184 6.4 11.3 0.00 0.00 0.00 41 1009.7
20260503033034 16 171 6.4 14.5 0.00 0.00 0.00 39 1010.1
20260503031536 16 180 6.4 11.3 0.00 0.00 0.00 39 1010.2
20260503030033 16 166 6.4 12.9 0.00 0.00 0.00 38 1010.6
20260503024528 16 156 6.4 19.3 0.00 0.00 0.00 38 1010.9
20260503023030 16 177 4.8 9.7 0.00 0.00 0.00 38 1011.2
20260503021525 16 209 3.2 11.3 0.00 0.00 0.00 38 1011.4
20260503020025 17 209 3.2 9.7 0.00 0.00 0.00 38 1011.5
20260503014525 17 216 9.7 17.7 0.00 0.00 0.00 36 1011.6
20260503013034 17 259 8.0 19.3 0.00 0.00 0.00 35 1011.6
20260503011524 17 271 4.8 24.1 0.00 0.00 0.00 33 1011.5
20260503010022 17 249 8.0 30.6 0.00 0.00 0.00 34 1011.7
20260503004522 17 219 3.2 11.3 0.00 0.00 0.00 36 1011.7
20260503003022 17 222 3.2 19.3 0.00 0.00 0.00 36 1011.8
20260503001520 17 242 9.7 30.6 0.00 0.00 0.00 36 1012.1